Location: Bednik
(45.3500°N, 16.3833°E)
Time: 17:51:49
(UTC+00:00)

Genesis I - Pass Details

Date: 08 August 2020
Orbit: 504 x 518 km, 64.5° (Epoch: 24 September)

Event Time Altitude Azimuth Distance (km) Brightness Sun altitude
Rises 20:44:29 0° 320° (NW) 2,623 8.3 -21.6°
Reaches altitude 10° 20:46:41 10° 316° (NW) 1,736 7.0 -21.8°
Maximum altitude 20:50:28 54° 239° (WSW) 629 3.5 -22.2°
Enters shadow 20:50:28 54° 239° (WSW) 629 3.5 -22.2°
